{"data":{"norad_id":64122,"intl_designator":"2025-110AC","name":"STARLINK-33991","alt_names":[],"object_type":"PAYLOAD","status":"ACTIVE","operator":null,"country":"US","launch_date":"2025-05-23","launch_site_code":"AFWTR","launch_vehicle":null,"mission":null,"orbit_class":"UNKNOWN","rcs_meters":null,"size_class":null,"mass_kg":null,"dimensions":null,"purposes":["comms"],"wikipedia_slug":null,"has_3d_model":false,"image_url":null,"decayed_at":null,"tle_current":{"epoch":"2026-09-20T13:28:14.799360Z","epoch_age_seconds":135191,"freshness":"FRESH","line1":"1 64122U 25110AC  26263.56128240  .00000976  00000+0  43224-4 0  9991","line2":"2 64122  53.1569 199.7945 0001279  90.9007 269.2141 15.31703814 75734","mean_motion":15.31703814,"eccentricity":0.0001279,"inclination_deg":53.1569,"raan_deg":199.7945,"arg_perigee_deg":90.9007,"mean_anomaly_deg":269.2141,"bstar":4.3224e-5,"rev_number":7573,"period_min":94.012953864722,"perigee_km":469.85265600015,"apogee_km":471.60459582726,"semimajor_km":6848.8656259137,"source":"CELESTRAK","updated_at":"2026-09-21T09:00:35.232077Z"}}}